Погода в Гулбене

Латвия     57°10′12″N   26°44′52″E
В апреле 2022 года жителям России запретили посещать сайт meteo.paraplan.net по решению Генеральной прокуратуры. Аудитория сайта уменьшилась в 10 раз. Владельцы сайта не видят смысла в поддержке погодного сервера в таких условиях. Сайт будет закрыт в октябре.
темп.,
°C
ветер,
м/с
пор.,
м/с
влажн.,
%
обл.,
%
осадки,
мм/ч
давл.,
гПа
погр.,
м
5 октября, ср
ср500:00+6зсз41094100 0.0 1011475
03:00+5зсз411925 0.0 1013413
06:00+3з269694 0.0 1013117
09:00+7зюз2696100 0.1 1014176
12:00+8ююз2696100 1.1 1014228
15:00+12юз4888100 1.1 1013846
18:00+11юз4109597 0.1 1013618
21:00+10юз41096100 0.2 1013465
6 октября, чт
чт600:00+10ююз31096100 0.5 1014421
03:00+9ююз3109720 0.5 1013341
06:00+8ююз4119728 0.0 1012347
09:00+9ююз413944 0.0 1012422
12:00+14юз514780 0.0 1011678
15:00+16юз61571100 0.0 10101306
18:00+13з6138013 0.5 10131243
21:00+11з6148231 0.6 10151115
7 октября, пт
пт700:00+11зюз6147975 0.0 10171094
03:00+12з61370100 0.0 10181284
06:00+11з6127434 0.0 10191204
09:00+11зюз5117491 0.1 10201089
12:00+13зюз5106729 0.0 10211075
15:00+15зюз510609 0.0 10201489
18:00+13зюз497098 0.1 1020900
21:00+11юз4128347 0.1 1020648
8 октября, сб
сб800:00+10юз4137678 0.0 1019627
03:00+8ююз4138584 0.0 1018443
06:00+7ю4138726 0.0 1016424
09:00+8ю51481100 0.0 1014536
12:00+13ююз51367100 0.0 1012765
15:00+15ююз5126692 0.0 10101295
18:00+13юз511708 0.0 10091167
21:00+12юз5126689 0.0 1009820
9 октября, вс
вс900:00+9зюз4118942 0.1 1011714
03:00+10зюз51073100 0.1 10111084
06:00+10з5968100 0.0 10121198
09:00+9зюз4976100 0.0 10131226
12:00+11з587289 0.1 10151202
15:00+12зюз585886 0.1 10161364
18:00+11юз39666 0.0 1016349
21:00+9зюз4127374 0.0 1017779